Regional Weather Roundup
Issued by NWS

Home | Current Version | Previous Version | Text Only | Print | Product List | Glossary Off
Versions: 1 2 3 4 5 6 7 8 9 10 11 12 13 14 15 16 17 18 19 20 21 22 23 24 25 26 27 28 29 30 31 32 33 34 35 36 37 38 39 40 41 42 43 44 45 46 47 48 49 50

000
ASUS44 KMEG 220010
RWRTN
TENNESSEE HOURLY STATE WEATHER ROUNDUP
NATIONAL WEATHER SERVICE MEMPHIS TN
600 PM CST WED FEB 21 2018

TNZ002-004-019-021-049-052-054-088>092-220100-
WEST TENNESSEE

CITY           SKY/WX    TMP DP  RH WIND       PRES   REMARKS
MEMPHIS INTL   RAIN      46  44  93 NE13      30.31F FOG
NWS MEMPHIS      N/A     45 N/A N/A MISG        N/A
JACKSON        CLOUDY    45  45 100 NE13      30.34F
DYERSBURG      RAIN      43  42  97 NE12      30.37F
SOMERVILLE     CLOUDY    46  45  93 N9        30.34R
COVINGTON      CLOUDY    45  43  93 NE10      30.36S FOG
UNION CITY     MOCLDY    41  41 100 NE9       30.39F FOG
BOLIVAR        CLOUDY    48  46  93 N9        30.31R
PARIS          CLOUDY    43  41  93 NE12G18   30.38F FOG
LEXINGTON      CLOUDY    46  45  93 N15G24    30.34F
SAVANNAH       CLOUDY    52  50  93 N13       30.31R
$$

TNZ008-025-027-028-033-062-065-066-220100-
NORTH MIDDLE TENNESSEE

CITY           SKY/WX    TMP DP  RH WIND       PRES   REMARKS
NASHVILLE      CLOUDY    52  49  89 N10       30.35R
PORTLAND       CLOUDY    48  48 100 N10       30.36R
CLARKSVILLE    RAIN      43  40  89 N10       30.43R FOG
SMYRNA         CLOUDY    54  52  93 N13       30.34R
COOKEVILLE     MOCLDY    63  57  82 N6        30.30R
GALLATIN       CLOUDY    52  50  93 N7        30.38R
CROSSVILLE     FAIR      69  59  70 S7        30.33R
$$

TNZ061-075-076-078-094-096-097-220100-
SOUTH MIDDLE TENNESSEE

CITY           SKY/WX    TMP DP  RH WIND       PRES   REMARKS
FAYETTEVILLE   MOCLDY    63  61  94 N8        30.27R
TULLAHOMA      CLOUDY    63  59  88 NW7       30.29R
WINCHESTER     CLOUDY    66  61  82 N8        30.29R
MCMINNVILLE    MOCLDY    63  57  82 N6        30.31R
COLUMBIA       CLOUDY    57  57 100 N8        30.30R
SHELBYVILLE    CLOUDY    59  57  94 N9        30.30S
$$

TNZ017-018-042-046-047-220100-
NORTHEAST TENNESSEE

CITY           SKY/WX    TMP DP  RH WIND       PRES   REMARKS
TRI CITIES     CLOUDY    72  64  76 W3        30.33R
ELIZABETHTON   FAIR      68  57  68 CALM      30.34R
$$

TNZ012-013-036-069-073-074-220100-
CENTRAL EAST TENNESSEE

CITY           SKY/WX    TMP DP  RH WIND       PRES   REMARKS
KNOXVILLE      FAIR      71  60  68 SW9       30.30R
OAK RIDGE      FAIR      75  60  59 S5        30.31R
DOWNTOWN KNOXV CLEAR     75  59  57 W3        30.31R
GATLINBURG     CLEAR     77  55  47 S10G16    30.31R
MORRISTOWN     MOCLDY    72  61  68 CALM      30.32R
JACKSBORO      CLEAR     70  59  68 CALM      30.34R
$$

TNZ083-085-099-220100-
SOUTHEAST TENNESSEE

CITY           SKY/WX    TMP DP  RH WIND       PRES   REMARKS
CHATTANOOGA    MOCLDY    76  61  59 SE3       30.29S
$$

SKY/WX REPORTED AS FAIR MEANS FEW OR NO CLOUDS BELOW
12 THOUSAND FEET.




USA.gov is the U.S. government's official web portal to all federal, state and local government web resources and services.